Hourly Data Report for March 21, 2017

PORT ALBERNI (AUT)
BRITISH COLUMBIA

49°18'59.700" N
124°55'36.600" W
76.20 m
1036B06
71475
WQC

Download Data

Hourly Data (March 2017)
Hourly Data Report for March 21, 2017
TIME
LST
Temp Definition
°C
Dew Point Definition
°C
Rel Hum Definition
%
Precip. Amount Definition
mm

Wind Dir Definition
10's deg

Wind Spd Definition
km/h
Visibility Definition
km
Stn Press Definition
kPa
Hmdx Definition


Wind Chill Definition


Weather Definition


00:00 8.4 1.9 64 0.0 8 7   100.06     LegendNANA
01:00 6.4 2.0 73 0.0 25 2   99.98     LegendNANA
02:00 5.7 2.3 78 0.1 5 2   99.91     LegendNANA
03:00 5.1 2.8 85 0.1 12 3   99.80     LegendNANA
04:00 4.3 3.6 95 0.9 34 2   99.77     LegendNANA
05:00 4.2 3.6 96 1.5 27 2   99.75     LegendNANA
06:00 4.1 3.6 96 2.1 23 3   99.72     LegendNANA
07:00 4.2 3.7 97 1.3 32 4   99.71     LegendNANA
08:00 4.3 3.9 97 0.6 31 4   99.65     LegendNANA
09:00 4.7 4.2 96 0.5 34 2   99.66     LegendNANA
10:00 5.1 4.2 94 0.5 30 4   99.63     LegendNANA
11:00 5.3 4.5 95 0.2 25 6   99.62     LegendNANA
12:00 6.1 5.1 93 1.3 28 5   99.58     LegendNANA
13:00 6.0 5.3 95 1.3 26 3   99.57     LegendNANA
14:00 6.5 5.5 93 1.0 25 2   99.51     LegendNANA
15:00 6.6 5.8 95 1.5 28 3   99.50     LegendNANA
16:00 7.4 6.4 94 0.1 29 4   99.50     LegendNANA
17:00 7.1 6.2 94 0.0 26 4   99.50     LegendNANA
18:00 7.2 6.4 95 0.1 33 4   99.49     LegendNANA
19:00 6.1 5.5 96 0.0 25 1   99.51     LegendNANA
20:00 5.0 4.6 97 0.1 31 2   99.54     LegendNANA
21:00 5.5 5.2 98 0.0 33 1   99.51     LegendNANA
22:00 5.7 5.5 98 0.8 1 1   99.50     LegendNANA
23:00 5.5 5.2 98 0.0 29 3   99.47     LegendNANA

Notes on Data Quality.

Legend

  • E = Estimated
  • M = Missing
  • NA = Not Available*
  • [empty] = Indicates an unobserved value
Date modified: